This demonstration page uses our WeatherBlox Daily Observations layout. Learn more.

Left ArrowRight Arrow

34.16533, -84.80231

Hourly Observations for October 16, 2019

Temp ( °F °C ) Dew Point ( °F °C ) Humidity (%) Winds ( mph kmh ) Pressure ( in mb ) Visibility ( mi km ) Precip ( " mm )
12:03 am 00:03 Cloudy with Light Rain 64 17.8 62 16.7 93 93 VRB 3 6 29.93 1013 3 5 0.01 0.25
12:27 am 00:27 Cloudy with Light Rain 64 17.8 62 16.7 93 93 VRB 5 7 29.91 1013 3 4 0.02 0.51
12:34 am 00:34 Cloudy with Light Rain 64 17.8 62 16.7 93 93 VRB 7 11 29.91 1013 3 5 0.03 0.76
12:53 am 00:53 Cloudy with Light Rain 64 17.8 61 16.1 90 90 E 6 9 29.88 1012 3 5 0.03 0.76
1:37 am 01:37 Cloudy with Mist and Fog 63 17.2 61 16.1 93 93 NE 5 7 29.90 1013 2 3 0.01 0.25
1:45 am 01:45 Cloudy with Mist and Fog 63 17.2 61 16.1 93 93 NE 5 7 29.90 1013 3 4 0.02 0.51
1:53 am 01:53 Cloudy with Mist and Fog 63 17.2 61 16.1 93 93 ENE 5 7 29.87 1012 3 5 0.02 0.51
2:02 am 02:02 Cloudy with Light Rain 63 17.2 61 16.1 93 93 ENE 3 6 29.88 1012 2 3 0.00 0.00
2:34 am 02:34 Cloudy with Light Rain 63 17.2 61 16.1 93 93 E 5 7 29.86 1011 3 5 0.04 1.02
2:51 am 02:51 Cloudy with Light Rain 63 17 61 16 94 94 E 6 9 29.85 1011 3 4 0.06 1.52
2:52 am 02:52 Cloudy with Light Rain 63 17.2 61 16.1 93 93 ESE 6 9 29.83 1010 3 4 0.06 1.52
3:01 am 03:01 Cloudy with Light Rain 63 17.2 61 16.1 93 93 E 6 9 29.85 1011 4 6 0.00 0.00
3:38 am 03:38 Cloudy with Light Rain 63 17.2 61 16.1 93 93 E 5 7 29.84 1010 5 8 0.03 0.76
3:53 am 03:53 Cloudy with Light Rain 63 17.2 61 16.1 93 93 E 3 6 29.81 1010 4 6 0.03 0.76
4:53 am 04:53 Cloudy with Mist and Fog 63 17.2 61 16.1 93 93 ENE 3 6 29.80 1009 4 6 0.01 0.25
5:48 am 05:48 Cloudy with Light Rain 63 17 61 16 94 94 Calm 29.82 1010 5 8 0.03 0.76
5:53 am 05:53 Cloudy with Light Rain 63 17.2 61 16.1 93 93 Calm 29.80 1009 7 11 0.03 0.76
6:26 am 06:26 Cloudy with Mist and Fog 63 17.2 61 16.1 93 93 NNE 3 6 29.81 1009 4 6 0.00 0.00
6:37 am 06:37 Cloudy with Light Rain 63 17.2 61 16.1 93 93 Calm 29.81 1009 3 4 0.00 0.00
6:53 am 06:53 Cloudy with Mist and Fog 63 17.2 61 16.1 93 93 Calm 29.80 1009 3 5 0.01 0.25
7:06 am 07:06 Cloudy with Mist and Fog 63 17.2 61 16.1 93 93 Calm 29.81 1009 3 4 0.00 0.00
7:15 am 07:15 Cloudy with Mist and Fog 63 17.2 61 16.1 93 93 Calm 29.81 1009 3 4 0.01 0.25
7:34 am 07:34 Cloudy with Mist and Fog 63 17.2 61 16.1 93 93 Calm 29.80 1009 3 5 0.01 0.25
7:53 am 07:53 Cloudy with Light Rain 63 17.2 61 16.1 93 93 NNW 3 6 29.80 1009 4 6 0.04 1.02
8:22 am 08:22 Cloudy 63 17.2 61 16.1 93 93 N 3 6 29.81 1009 9 14 0.00 0.00
8:53 am 08:53 Cloudy 63 17.2 61 16.1 93 93 Calm 29.80 1009 9 14 0.00 0.00
9:53 am 09:53 Cloudy 65 18.3 63 17.2 93 93 VRB 5 7 29.81 1010 8 13 0.01 0.25
10:42 am 10:42 Cloudy 66 18.9 64 17.8 93 93 Calm 29.85 1011 10 16 0.00 0.00
10:53 am 10:53 Cloudy 68 20 64 17.8 87 87 VRB 3 6 29.83 1010 10 16 0.00 0.00
11:53 am 11:53 Mostly Cloudy 69 20.6 61 16.1 76 76 VRB 6 9 29.86 1011 10 16 0.00 0.00
12:53 pm 12:53 Cloudy 68 20 60 15.6 76 76 Calm 29.87 1011 10 16 0.00 0.00
1:53 pm 13:53 Mostly Sunny 69 20.6 58 14.4 68 68 VRB 3 6 29.86 1011 10 16 0.00 0.00
2:53 pm 14:53 Mostly Sunny 68 20 51 10.6 55 55 VRB 5 7 29.87 1011 10 16 0.00 0.00
3:53 pm 15:53 Sunny 72 22.2 48 8.9 43 43 Calm 29.85 1011 10 16 0.00 0.00
4:53 pm 16:53 Sunny 70 21.1 41 5 35 35 VRB 6 9 29.87 1012 10 16 0.00 0.00
5:53 pm 17:53 Sunny 67 19.4 42 5.6 41 41 Calm 29.89 1012 10 16 0.00 0.00
6:53 pm 18:53 Sunny 64 17.8 42 5.6 45 45 VRB 3 6 29.88 1012 10 16 0.00 0.00
7:53 pm 19:53 Clear 59 15 45 7.2 60 60 Calm 29.90 1013 10 16 0.00 0.00
8:53 pm 20:53 Clear 60 15.6 39 3.9 46 46 VRB 3 6 29.92 1013 10 16 0.00 0.00
9:53 pm 21:53 Clear 56 13.3 41 5 57 57 VRB 3 6 29.93 1014 10 16 0.00 0.00
10:53 pm 22:53 Clear 56 13.3 40 4.4 55 55 VRB 5 7 29.95 1014 10 16 0.00 0.00
11:53 pm 23:53 Clear 53 11.7 41 5 64 64 Calm 29.96 1015 10 16 0.00 0.00

Powered by AerisWeather